North Bennington, VT

12:35 PM EST on February 27, 2017 (GMT -0500)
Morse State

Weather History for KDDH - April, 2014

Change the Weather History Date:

Wednesday, April 16, 2014

  Actual Average Record
Temperature  
Mean Temperature 30 °F 46 °F  
Max Temperature 38 °F 57 °F 87 °F (2012)
Min Temperature 22 °F 35 °F 22 °F (2014)
Degree Days  
Heating Degree Days 35 19  
Month to date heating degree days 316 356  
Since 1 July heating degree days 6722 6591  
Cooling Degree Days 0 0  
Month to date cooling degree days 4 0  
Year to date cooling degree days 4 0  
Moisture  
Dew Point 18 °F    
Average Humidity 59    
Maximum Humidity 81    
Minimum Humidity 37    
Precipitation  
Precipitation 0.00 in 0.10 in 0.63 in (2007)
Month to date precipitation 0.99 1.88  
Year to date precipitation 9.00 10.02  
Sea Level Pressure  
Sea Level Pressure 30.25 in    
Wind  
Wind Speed 7 mph (NW)    
Max Wind Speed 18 mph    
Max Gust Speed 24 mph    
Visibility 10 miles    
Events Snow    
T = Trace of Precipitation, MM = Missing Value Source: NWS Daily Summary

Daily Weather History Graph

Daily Weather History Graph

Search for Another Location

Airport or City:

Trip Planner

Search our weather history database for the weather conditions in past years. The results will help you decide how hot, cold, wet, or windy it might be!

Date:

Astronomy

Apr. 16, 2014 Rise Set
Actual Time 6:09 AM EDT 7:36 PM EDT
Civil Twilight 5:40 AM EDT 8:06 PM EDT
Nautical Twilight 5:04 AM EDT 8:41 PM EDT
Astronomical Twilight 4:26 AM EDT 9:19 PM EDT
Moon 9:19 PM EDT (4/16) 6:53 AM EDT (4/16)
Length of Visible Light 14h 25m
Length of Day
13h 26m
Full, 98% of the Moon is Illuminated
Apr 16
Full
Apr 22
Last Quarter
Apr 29
New
May 6
First Quarter
May 14
Full

Hourly Weather History & Observations

Time (EDT) Temp. Windchill Dew Point Humidity Pressure Visibility Wind Dir Wind Speed Gust Speed Precip Events Conditions
12:54 AM 28.0 °F 17.5 °F 23.0 °F 81% 29.91 in 1.8 mi West 12.7 mph 24.2 mph 0.04 in Snow Light Snow
12:56 AM 28.0 °F 16.5 °F 23.0 °F 81% 29.90 in 3.0 mi West 15.0 mph 24.2 mph 0.00 in Snow Light Snow
1:04 AM 28.0 °F 18.1 °F 24.1 °F 85% 29.91 in 9.0 mi West 11.5 mph 23.0 mph 0.00 in   Overcast
1:16 AM 28.0 °F 19.3 °F 23.0 °F 81% 29.91 in 10.0 mi West 9.2 mph 23.0 mph 0.00 in   Overcast
1:54 AM 28.0 °F 18.6 °F 23.0 °F 81% 29.92 in 10.0 mi West 10.4 mph 20.7 mph 0.00 in   Mostly Cloudy
2:09 AM 28.0 °F 18.1 °F 21.9 °F 78% 29.91 in 10.0 mi West 11.5 mph 18.4 mph N/A   Mostly Cloudy
2:54 AM 28.0 °F 18.1 °F 21.9 °F 78% 29.96 in 10.0 mi WNW 11.5 mph 18.4 mph N/A   Overcast
3:46 AM 27.0 °F 16.7 °F 18.0 °F 69% 29.99 in 10.0 mi NW 11.5 mph 24.2 mph N/A   Overcast
3:54 AM 27.0 °F 16.1 °F 18.0 °F 69% 29.99 in 10.0 mi NNW 12.7 mph 20.7 mph N/A   Overcast
4:52 AM 24.8 °F 15.3 °F 15.8 °F 69% 30.08 in 10.0 mi NNW 9.2 mph - N/A   Clear
4:54 AM 25.0 °F 16.3 °F 16.0 °F 69% 30.11 in 10.0 mi NNW 8.1 mph - N/A   Clear
5:54 AM 23.0 °F 13.9 °F 15.1 °F 72% 30.11 in 10.0 mi NNW 8.1 mph - N/A   Clear
6:54 AM 23.0 °F 17.0 °F 15.1 °F 72% 30.19 in 10.0 mi NW 4.6 mph - N/A   Mostly Cloudy
7:54 AM 24.1 °F 14.4 °F 14.0 °F 65% 30.24 in 10.0 mi NW 9.2 mph - N/A   Clear
8:54 AM 24.1 °F 13.7 °F 10.9 °F 57% 30.29 in 10.0 mi NW 10.4 mph - N/A   Scattered Clouds
9:54 AM 26.1 °F 19.4 °F 12.9 °F 58% 30.32 in 10.0 mi NNW 5.8 mph 17.3 mph N/A   Mostly Cloudy
10:54 AM 28.0 °F 20.8 °F 14.0 °F 56% 30.36 in 10.0 mi Variable 6.9 mph - N/A   Mostly Cloudy
11:54 AM 30.0 °F 19.5 °F 14.0 °F 51% 30.39 in 10.0 mi NW 13.8 mph 19.6 mph N/A   Scattered Clouds
12:54 PM 30.9 °F 21.7 °F 12.9 °F 47% 30.41 in 10.0 mi NW 11.5 mph 19.6 mph N/A   Clear
1:54 PM 33.1 °F 24.9 °F 16.0 °F 50% 30.42 in 10.0 mi NW 10.4 mph - N/A   Clear
2:54 PM 34.0 °F 26.0 °F 16.0 °F 48% 30.44 in 10.0 mi North 10.4 mph - N/A   Mostly Cloudy
3:54 PM 36.0 °F 33.3 °F 17.1 °F 46% 30.45 in 10.0 mi North 3.5 mph - N/A   Mostly Cloudy
4:54 PM 37.0 °F 34.5 °F 15.1 °F 41% 30.46 in 10.0 mi Variable 3.5 mph - N/A   Scattered Clouds
5:54 PM 37.9 °F 34.4 °F 15.1 °F 39% 30.47 in 10.0 mi North 4.6 mph - N/A   Clear
6:54 PM 37.0 °F 33.3 °F 14.0 °F 39% 30.49 in 10.0 mi NNW 4.6 mph - N/A   Clear
7:54 PM 30.9 °F - 19.9 °F 64% 30.52 in 10.0 mi Calm Calm - N/A   Clear
8:54 PM 30.0 °F 26.5 °F 19.9 °F 66% 30.55 in 10.0 mi South 3.5 mph - N/A   Clear
9:54 PM 27.0 °F - 21.9 °F 81% 30.57 in 10.0 mi Calm Calm - N/A   Clear
10:54 PM 27.0 °F - 18.0 °F 69% 30.58 in 10.0 mi Calm Calm - N/A   Clear
11:54 PM 28.9 °F 22.8 °F 17.1 °F 61% 30.60 in 10.0 mi NNE 5.8 mph - N/A   Clear